SHIJIAN-20 (SJ-20)

Last updated on Mon Oct 20 2025 00:02:50 GMT+0000 (Coordinated Universal Time)

1 44910U 19097A 25292.74427337 -.00000113 00000+0 00000+0 0 9995 2 44910 4.3010 78.0131 0003368 183.3931 112.9661 1.00271975 21287
UTC large
Height (km)
Speed (km/s)
/
Latitude / Longitude
Inclination (degrees)
Orbital Period (minutes)
Azimuth
Elevation
Range (km)
Doppler Factor

Next 0 passes for location: London (51.5072 / 0.1276)

Sorry there are no passes over London.